Location: Ciserano
(45.5833°N, 9.6000°E)
Time: 23:55:05
(UTC+00:00)

SJ 16-02 - Pass Details

Date: 23 April 2021
Orbit: 605 x 617 km, 75.0° (Epoch: 10 May)

Event Time Altitude Azimuth Distance (km) Brightness Sun altitude
Exits shadow 23:31:54 18° 58° (ENE) 1,546 3.7 -31.5°
Drops below altitude 10° 23:33:22 10° 44° (NE) 1,986 4.5 -31.5°
Sets 23:35:54 0° 31° (NNE) 2,898 5.7 -31.4°
